Starlink 32771

operational
NORAD ID: 62573 Int'l Des: 2025-006 Owner: SPXS Country: US Constellation: starlink
LEOCIRCULAR

Starlink 32771について

説明を読み込み中...

リアルタイム位置

3D地球を読み込み中...

次回通過

高度履歴

Altitude vs Time

uPlot chart will show altitude changes over time

軌道要素

1 62573U 25006V 25302.31557847 .00031844 00000-0 11607-2 0 9995
2 62573 42.9995 314.2517 0000299 182.9904 177.0946 15.27609315 44774
Epoch: Oct 29, 2025 • Age: 13 hours

現在のステータス

高度 483.9 km
速度 7.63 km/s
衛星直下点 32.01°N, 9.41°E
打ち上げ日 Jan 10, 2025
運用期間 0.7 years
タイプ internet

技術仕様

分類 Payload
質量 730.00 kg
乾燥質量 700.00 kg
総質量 730.00 kg
長さ 0.30 m
直径 4.10 m
スパン 29.00 m
形状 Box + pan
製造者 SPXS
バスタイプ Starlink V2M
フェーズステータス In Orbit
所有者/国 SPXS/US

大規模コンステレーション

Loading constellations...